Wetbulb
62.38 60.44 60.62 56.32 48.29 47.68 44.13 45.02 47.19 48.82 49.71 52.40 53.13 65.80 65.03 65.57 62.40 60.96 74.91 75.80 76.51 75.98 77.28 76.78 76.66 76.76 77.02 77.17 77.21 77.14 77.09 76.96 77.04 76.71 76.16 76.19 76.21 76.59 77.11 77.31 76.69 76.43 75.12 74.68 74.17 73.28 72.72 72.96 72.96
60.58 59.29 56.26 52.62 46.60 43.44 43.92 46.01 47.56 49.76 51.11 52.20 56.42 63.08 65.11 63.81 69.75 71.46 73.29 76.20 76.67 76.26 77.21 76.34 76.53 76.56 76.34 76.51 76.98 76.81 76.88 77.01 76.96 76.71 76.44 76.41 76.54 76.94 77.09 76.98 76.92 76.38 75.48 74.39 73.85 72.77 72.42 72.82 73.04
58.94 55.67 53.92 49.70 46.00 43.82 44.55 47.53 48.75 50.14 50.54 50.56 58.50 61.36 62.63 61.88 66.32 71.14 76.00 76.48 77.06 76.47 76.75 76.70 76.78 76.38 76.14 76.04 76.23 76.60 76.68 76.63 76.81 76.66 76.56 76.44 76.51 76.71 76.73 76.86 76.99 76.50 75.53 74.43 73.50 72.77 72.64 72.41 72.68
57.06 56.09 52.11 47.92 44.54 46.18 46.56 49.08 49.40 50.09 53.31 53.92 57.93 58.33 62.30 61.39 67.40 74.84 76.53 76.42 76.57 76.79 76.33 76.84 76.70 76.41 76.03 75.53 75.86 76.25 76.30 76.53 76.61 76.54 76.51 76.31 76.49 76.20 76.20 76.51 76.83 76.69 75.40 74.29 73.89 73.16 72.70 72.04 71.88
53.67 52.15 47.21 45.16 44.67 47.34 48.95 49.70 48.98 51.46 51.12 53.89 55.67 52.37 53.38 56.20 67.07 75.37 76.05 75.99 75.28 75.70 75.99 76.79 76.90 76.65 76.18 75.43 75.46 75.95 76.27 76.27 76.15 76.31 76.11 76.16 76.11 75.95 75.90 76.23 76.44 76.13 75.59 74.93 73.98 73.30 72.51 71.88 71.27
50.91 50.97 44.89 42.69 44.07 46.61 48.51 49.30 48.67 50.44 51.90 53.02 53.60 51.96 52.72 57.70 57.50 62.77 75.70 75.68 75.64 75.38 76.56 77.04 76.64 76.85 76.30 76.13 75.68 75.92 76.11 76.06 76.17 76.13 75.93 75.93 75.90 75.68 75.85 75.98 75.83 75.71 75.48 75.20 74.35 73.32 72.08 71.16 70.56
49.19 48.39 43.98 43.81 44.18 45.86 47.76 49.82 49.38 49.29 51.01 51.57 51.81 51.18 53.56 56.10 58.11 65.94 75.15 75.56 75.66 75.72 76.03 77.01 77.05 76.77 76.37 76.20 75.97 75.79 75.88 75.85 75.91 75.79 75.69 75.85 75.85 75.45 75.50 75.50 75.58 75.26 75.21 74.86 74.46 73.29 71.90 70.88 70.51
49.52 48.70 42.91 43.78 44.28 44.69 48.56 49.44 49.79 50.06 49.64 52.87 52.49 50.30 50.99 55.17 65.60 72.34 74.76 74.80 75.38 75.79 75.55 75.99 77.03 76.68 76.76 76.29 75.83 75.84 75.61 75.72 75.77 75.97 75.85 75.83 75.82 75.69 75.70 74.93 75.10 75.18 74.93 74.61 74.51 73.53 72.25 71.41 70.94
48.16 46.14 42.91 43.70 44.61 46.84 49.19 49.68 51.16 51.62 51.30 52.21 52.79 52.92 54.87 55.97 61.94 70.26 70.53 72.55 75.13 74.84 75.88 76.24 76.14 76.30 76.36 76.09 76.24 75.98 75.53 75.35 75.48 75.56 75.93 75.57 74.55 75.01 74.99 74.60 74.95 75.23 75.16 75.01 74.53 73.64 72.69 71.82 71.26
48.81 46.00 43.43 45.47 47.22 49.24 49.99 48.87 50.82 50.77 51.67 51.32 52.32 53.98 55.35 55.86 55.61 56.03 58.91 60.76 66.38 70.25 74.47 76.11 76.43 76.40 76.17 75.66 76.22 76.30 75.99 75.35 74.37 74.20 74.49 74.60 74.35 74.64 74.03 74.50 74.90 74.85 75.25 75.20 74.87 74.08 73.12 71.91 69.66
46.12 46.11 45.92 46.67 48.29 50.41 50.21 50.39 50.73 50.65 50.24 51.62 51.37 53.16 54.65 54.93 55.54 54.92 54.72 54.74 57.68 64.74 70.39 73.67 76.17 76.91 76.35 75.98 75.91 75.76 75.57 75.34 75.45 75.09 74.98 74.66 73.92 74.02 73.91 73.44 74.00 74.29 74.34 73.03 72.99 72.95 72.17 70.87 70.11
47.75 48.26 48.57 50.62 51.10 49.98 49.51 51.15 50.29 50.31 50.97 53.42 52.88 53.17 54.58 56.06 56.01 56.94 56.40 55.91 55.99 56.14 58.35 69.14 74.55 75.92 76.88 76.32 75.61 75.78 75.01 74.66 74.50 75.08 74.87 74.05 73.43 72.96 72.98 72.77 72.91 73.61 73.19 72.66 72.52 71.30 71.78 71.17 70.32
48.23 48.80 50.03 50.86 50.08 49.79 49.99 49.38 49.83 51.10 55.18 56.74 57.04 56.74 56.23 56.98 57.43 58.59 59.34 60.08 60.42 59.77 59.30 58.91 63.23 73.86 75.60 74.46 75.49 75.69 75.17 74.37 74.54 74.42 74.65 73.96 73.73 72.32 72.56 72.52 72.66 72.49 72.78 72.31 71.37 71.21 71.25 70.57 69.86
48.80 48.92 49.65 49.74 50.73 50.43 49.60 49.07 50.69 52.29 55.67 55.55 55.66 55.33 55.98 56.05 56.94 57.94 58.47 58.87 59.49 60.52 60.75 61.77 60.42 63.32 73.48 74.31 75.32 74.94 75.26 75.09 74.87 74.52 74.59 74.41 74.15 72.89 71.84 72.11 72.19 72.15 72.42 72.27 71.50 70.60 70.36 70.20 69.92
48.99 48.05 49.39 49.94 50.22 50.22 50.46 48.23 49.61 52.69 54.89 53.95 54.23 54.88 55.59 56.05 57.08 57.15 58.09 58.49 59.34 60.09 61.16 61.38 61.94 62.53 65.87 71.18 73.65 74.12 74.62 74.89 74.59 74.52 74.90 74.44 74.43 73.64 72.49 71.37 71.52 71.72 72.27 72.34 71.79 71.43 70.83 70.07 70.14
47.52 47.16 45.57 48.64 49.85 50.17 50.30 45.32 50.38 53.53 53.98 52.88 53.46 53.97 54.84 55.75 56.52 57.68 58.36 58.85 59.77 59.84 59.89 61.09 61.21 62.17 63.28 65.23 70.63 72.77 72.63 74.02 74.76 75.06 74.92 74.75 74.19 73.24 71.93 72.05 70.53 70.65 71.88 71.41 70.97 70.31 69.31 68.60 69.31
46.79 43.50 43.43 45.34 48.93 49.44 49.13 45.98 50.74 53.06 53.43 52.39 53.17 53.61 54.29 55.32 56.71 57.96 58.53 58.76 59.29 59.53 59.62 59.92 60.94 60.99 61.89 63.42 65.67 69.45 72.38 72.40 72.93 74.30 74.56 74.64 74.01 72.48 71.00 72.70 72.06 71.36 69.32 70.46 70.44 70.29 69.86 68.83 70.42
42.76 43.45 44.04 43.45 47.40 48.37 46.86 47.55 50.80 52.21 52.21 51.80 52.89 53.41 54.00 54.55 55.31 57.33 58.42 58.88 59.36 59.59 59.94 60.07 60.30 61.02 61.42 61.93 64.35 67.42 69.46 71.16 71.80 73.14 72.94 74.40 73.35 72.41 72.14 72.64 72.40 72.17 70.43 68.28 70.15 70.46 70.58 70.17 70.54
45.69 44.33 43.72 46.40 47.76 46.49 46.30 47.03 50.15 51.92 51.62 51.90 52.30 52.97 53.57 54.16 56.28 57.60 58.16 58.70 58.87 59.62 59.60 59.56 59.65 60.58 60.34 60.18 60.37 63.47 65.87 68.33 70.40 70.87 71.58 72.08 72.89 73.68 72.50 72.53 72.43 72.14 70.50 69.74 68.32 70.27 70.31 69.92 71.26
44.94 43.87 43.77 46.21 47.30 46.59 46.42 45.82 49.84 51.29 51.04 51.86 52.05 52.69 53.32 54.16 55.25 56.16 57.29 58.23 58.32 58.58 59.25 59.49 59.66 60.03 60.28 59.90 60.37 60.51 61.66 63.03 66.79 70.78 71.83 72.22 72.15 73.19 73.15 72.98 72.40 72.18 70.85 70.65 69.52 68.68 68.77 69.61 71.35
44.44 43.70 43.41 43.25 45.49 46.74 45.37 44.42 47.19 50.51 51.56 52.19 52.83 53.46 53.92 53.79 53.96 54.95 55.72 56.89 58.07 58.01 58.39 58.72 59.48 59.88 60.37 60.73 60.36 60.62 61.25 61.93 63.15 64.97 66.83 71.06 72.10 72.83 72.61 73.33 72.67 72.44 71.67 70.28 70.37 69.57 69.69 67.67 70.18
42.34 45.75 45.02 44.42 43.65 40.32 45.48 38.62 43.88 48.79 49.70 50.66 51.77 52.49 52.67 53.57 54.83 54.91 55.11 55.88 56.93 57.44 58.58 59.05 59.42 59.68 60.08 61.10 60.09 59.98 58.86 58.19 60.33 62.45 65.03 68.13 70.93 71.80 72.12 72.67 72.81 72.95 72.08 71.78 70.48 68.25 69.10 70.97 69.10
44.10 46.97 45.76 44.96 43.89 42.36 41.60 40.71 43.89 47.54 47.40 48.70 51.10 51.62 52.30 53.57 54.26 54.06 54.89 55.64 56.67 57.69 57.79 58.62 59.20 59.34 60.00 60.49 60.71 59.76 59.76 60.06 60.76 61.09 63.57 66.51 69.54 70.61 71.22 72.21 72.45 72.31 72.12 71.98 71.59 70.28 68.17 70.59 69.26
47.18 46.26 44.50 43.17 42.00 37.72 40.17 40.73 41.72 45.37 47.07 48.60 51.22 51.67 52.15 52.82 54.06 54.94 55.88 56.30 56.06 57.35 57.61 58.10 58.27 58.56 59.34 60.05 61.04 59.68 58.12 59.72 59.83 60.16 60.18 61.97 64.02 67.51 70.64 71.31 71.95 72.61 72.32 71.58 71.12 70.84 70.61 69.32 69.03
47.51 44.39 38.01 35.73 37.42 35.82 40.70 40.08 42.77 46.54 49.34 49.45 49.82 51.17 52.11 52.93 53.50 54.12 54.41 54.84 55.10 55.80 56.50 56.93 57.53 57.21 58.13 58.08 59.41 60.65 59.83 58.59 59.49 60.22 59.76 60.97 61.85 64.42 69.04 70.82 71.53 71.42 72.10 72.20 71.47 70.67 68.04 68.02 66.93
43.81 43.76 39.47 30.93 33.62 36.42 41.34 37.18 43.72 49.30 51.16 51.32 51.56 52.15 52.94 53.10 53.14 54.26 54.66 55.06 54.78 55.12 55.93 56.34 56.47 56.18 56.28 56.12 57.21 58.78 60.33 57.93 59.36 60.50 60.12 60.35 61.37 63.00 68.27 69.85 71.24 71.34 71.53 71.63 71.41 70.68 71.29 67.52 67.03
44.08 42.46 44.28 38.39 36.51 35.73 39.65 41.46 45.84 48.44 49.34 50.72 50.22 51.01 51.46 52.61 52.54 53.66 54.98 55.38 54.93 54.71 55.45 55.45 54.34 54.24 55.28 55.87 55.49 56.97 58.76 58.82 57.05 59.20 61.15 60.67 61.98 62.52 65.07 68.46 69.69 70.96 71.06 71.26 71.28 70.35 69.86 69.30 65.22
46.59 46.95 40.08 41.20 32.32 30.26 36.71 37.55 39.97 44.46 46.77 48.26 48.60 49.46 51.05 52.17 52.41 53.59 54.51 54.83 54.66 54.74 55.27 55.83 55.25 53.87 53.61 54.03 54.63 55.35 56.55 58.17 58.84 57.75 59.09 60.56 61.30 62.59 64.21 65.72 68.79 69.86 70.10 70.64 70.71 69.92 68.64 65.35 57.52
44.09 43.15 42.20 41.65 40.03 34.26 31.65 37.17 46.15 46.40 48.06 47.32 48.79 50.09 50.71 51.42 52.24 53.21 54.30 54.64 53.88 54.31 54.04 53.99 53.73 52.63 52.39 53.47 54.88 54.31 53.95 54.74 56.12 56.48 57.79 60.65 61.09 61.95 63.69 64.90 66.46 68.13 68.63 68.38 67.26 65.70 64.03 61.79 56.16
45.65 43.50 42.55 39.01 34.78 38.54 36.45 37.68 48.66 49.73 49.45 49.09 49.26 50.18 51.39 52.27 52.61 53.57 54.21 53.99 52.88 52.47 51.46 50.58 51.50 51.17 50.86 52.31 52.68 52.62 52.96 53.38 54.14 55.34 56.79 60.16 60.99 61.71 62.25 64.83 65.80 67.38 66.13 64.70 64.17 61.93 60.54 58.30 57.55
MSLP
1011.15 1010.88 1010.77 1010.27 1010.22 1009.29 1008.58 1008.57 1008.47 1007.39 1006.67 1006.58 1006.37 1006.16 1005.74 1005.92 1005.95 1006.70 1007.45 1007.53 1007.72 1008.13 1008.54 1008.99 1009.20 1009.50 1009.74 1009.91 1010.13 1010.23 1010.39 1010.63 1010.85 1011.21 1011.38 1011.55 1011.80 1012.09 1012.37 1012.60 1012.78 1013.04 1013.27 1013.44 1013.61 1013.70 1013.85 1013.99 1014.08
1011.07 1010.88 1010.49 1010.15 1009.51 1008.66 1008.80 1008.74 1008.02 1007.52 1007.16 1006.74 1006.24 1006.10 1006.04 1006.34 1006.52 1006.70 1007.18 1007.93 1007.99 1008.23 1008.57 1008.83 1009.39 1009.62 1009.97 1010.22 1010.34 1010.52 1010.70 1010.84 1010.99 1011.18 1011.50 1011.67 1011.92 1012.12 1012.36 1012.60 1012.74 1012.97 1013.22 1013.41 1013.62 1013.83 1013.95 1014.08 1014.14
1011.01 1010.76 1010.10 1010.00 1009.72 1008.93 1008.86 1008.71 1008.15 1007.73 1007.40 1006.87 1006.24 1006.27 1006.51 1007.14 1007.05 1007.24 1007.89 1008.20 1008.37 1008.65 1008.83 1009.17 1009.60 1009.82 1010.11 1010.33 1010.60 1010.76 1011.04 1011.15 1011.26 1011.31 1011.59 1011.79 1012.00 1012.18 1012.42 1012.61 1012.71 1012.90 1013.24 1013.44 1013.65 1013.89 1014.06 1014.14 1014.20
1010.72 1010.49 1011.15 1010.30 1009.57 1009.97 1009.47 1008.91 1008.43 1007.76 1007.22 1007.00 1006.59 1006.60 1007.20 1007.90 1007.86 1008.00 1008.16 1008.28 1008.43 1008.69 1008.87 1009.49 1009.64 1009.88 1010.22 1010.50 1010.72 1010.88 1011.01 1011.23 1011.46 1011.58 1011.76 1012.00 1012.20 1012.35 1012.50 1012.72 1012.86 1012.96 1013.18 1013.45 1013.63 1013.92 1014.11 1014.14 1014.20
1010.92 1010.64 1010.27 1010.32 1010.02 1010.02 1009.80 1009.37 1008.74 1007.74 1007.46 1007.18 1006.88 1007.21 1007.32 1007.79 1008.03 1008.13 1008.23 1008.36 1008.40 1008.69 1008.96 1009.45 1009.94 1010.06 1010.20 1010.45 1010.68 1010.89 1011.07 1011.25 1011.36 1011.63 1011.90 1012.10 1012.32 1012.49 1012.64 1012.75 1012.99 1013.12 1013.28 1013.44 1013.68 1013.88 1014.13 1014.17 1014.17
1010.63 1010.83 1010.27 1010.06 1010.12 1010.11 1009.79 1009.49 1009.01 1008.19 1007.72 1007.46 1007.29 1007.39 1007.78 1007.97 1008.18 1008.32 1008.32 1008.43 1008.61 1008.90 1009.11 1009.46 1010.04 1010.25 1010.41 1010.58 1010.73 1010.89 1011.05 1011.16 1011.37 1011.49 1011.80 1012.15 1012.33 1012.54 1012.71 1012.87 1013.03 1013.13 1013.36 1013.46 1013.68 1013.90 1014.16 1014.27 1014.17
1010.44 1010.56 1010.65 1010.51 1010.30 1009.94 1009.74 1009.65 1009.05 1008.62 1007.98 1007.83 1008.10 1007.84 1008.16 1007.76 1008.34 1008.58 1008.53 1008.60 1008.78 1009.00 1009.22 1009.48 1009.71 1010.16 1010.54 1010.75 1010.90 1010.98 1011.15 1011.34 1011.47 1011.53 1011.73 1011.96 1012.23 1012.54 1012.74 1012.89 1013.08 1013.14 1013.28 1013.46 1013.66 1013.94 1014.03 1014.22 1014.22
1011.09 1010.93 1011.03 1010.84 1010.27 1010.11 1009.99 1009.57 1009.40 1008.94 1008.53 1008.58 1008.45 1008.16 1008.28 1008.37 1008.62 1008.49 1008.56 1008.71 1008.94 1009.08 1009.20 1009.46 1009.76 1009.81 1010.18 1010.38 1010.96 1011.09 1011.19 1011.38 1011.55 1011.75 1011.90 1012.09 1012.24 1012.35 1012.54 1012.69 1012.84 1012.99 1013.17 1013.35 1013.58 1013.87 1014.04 1014.02 1014.13
1011.49 1011.02 1010.89 1010.76 1010.52 1010.27 1010.14 1009.62 1009.47 1009.44 1009.00 1008.77 1008.66 1008.67 1008.77 1008.87 1008.85 1008.52 1008.40 1008.53 1008.72 1008.95 1009.10 1009.22 1009.38 1009.55 1009.80 1010.09 1010.48 1011.08 1011.28 1011.36 1011.50 1011.70 1011.92 1012.14 1011.97 1012.10 1012.17 1012.26 1012.47 1012.78 1012.99 1013.13 1013.36 1013.60 1013.86 1014.03 1013.99
1011.06 1011.08 1011.15 1011.35 1010.94 1010.56 1010.36 1010.16 1009.79 1009.48 1009.16 1009.00 1009.05 1009.16 1009.40 1009.34 1009.33 1009.12 1008.85 1008.50 1008.52 1008.59 1008.79 1009.07 1009.30 1009.48 1009.56 1009.77 1010.02 1010.24 1010.50 1010.74 1010.93 1011.08 1011.31 1011.58 1011.64 1011.83 1011.86 1011.95 1012.38 1012.57 1012.68 1012.84 1013.10 1013.32 1013.46 1013.74 1013.28
1011.47 1011.05 1011.36 1011.18 1011.01 1010.93 1010.56 1010.24 1010.09 1009.67 1009.46 1009.90 1009.71 1009.55 1009.85 1010.06 1010.28 1010.10 1009.82 1009.64 1009.53 1009.44 1009.33 1009.29 1009.43 1009.29 1009.36 1009.50 1009.77 1009.97 1010.21 1010.43 1010.76 1010.99 1011.20 1011.22 1011.35 1011.54 1011.70 1011.76 1011.94 1012.03 1012.29 1012.24 1012.42 1012.62 1012.71 1012.75 1013.00
1011.46 1011.47 1011.30 1011.01 1011.10 1011.07 1010.67 1010.45 1010.38 1010.73 1010.90 1010.80 1010.38 1010.45 1010.56 1010.52 1010.63 1010.78 1010.59 1010.26 1009.90 1009.69 1009.59 1009.61 1009.67 1009.72 1009.60 1009.34 1009.60 1009.45 1009.60 1009.90 1010.20 1010.38 1010.84 1011.16 1011.22 1011.32 1011.20 1011.19 1011.36 1011.65 1011.62 1011.66 1011.98 1011.98 1012.29 1012.55 1012.79
1011.43 1011.40 1011.22 1011.05 1011.11 1010.94 1010.98 1010.86 1010.96 1011.44 1011.69 1011.28 1010.98 1011.07 1011.32 1011.56 1011.66 1011.69 1011.62 1011.39 1011.01 1010.54 1010.32 1010.00 1009.86 1009.76 1009.72 1009.74 1009.52 1009.44 1009.39 1009.46 1009.43 1009.77 1010.08 1010.52 1010.52 1010.82 1010.88 1010.93 1010.94 1010.99 1011.17 1011.43 1011.57 1011.64 1011.82 1011.98 1012.18
1011.74 1011.51 1011.10 1011.08 1010.73 1010.72 1010.76 1011.12 1011.22 1012.13 1012.21 1011.74 1011.68 1011.84 1012.11 1012.20 1012.45 1012.23 1012.04 1011.90 1011.66 1011.39 1011.00 1010.62 1010.14 1009.80 1009.63 1009.67 1009.47 1009.34 1009.22 1008.95 1009.21 1009.24 1009.37 1009.86 1009.96 1010.25 1010.54 1010.59 1010.62 1010.70 1010.78 1010.91 1011.15 1011.33 1011.50 1011.54 1011.62
1011.70 1011.17 1010.73 1010.70 1010.57 1010.43 1010.83 1011.20 1012.25 1012.87 1012.75 1012.46 1012.53 1012.64 1012.67 1012.74 1012.74 1012.77 1012.71 1012.47 1012.29 1011.81 1011.58 1011.00 1010.31 1010.02 1009.70 1009.42 1009.26 1009.10 1008.92 1008.84 1008.91 1008.79 1008.94 1009.17 1009.35 1009.69 1010.11 1010.27 1010.17 1010.08 1010.41 1010.67 1010.86 1011.20 1011.30 1011.24 1011.27
1011.38 1011.20 1010.50 1010.69 1010.58 1010.69 1010.64 1011.65 1012.95 1013.29 1013.03 1012.99 1012.99 1012.97 1012.97 1013.04 1013.18 1013.20 1013.10 1012.85 1012.52 1012.11 1011.75 1011.39 1010.84 1010.20 1009.80 1009.41 1009.06 1008.78 1008.75 1008.72 1008.42 1008.33 1008.44 1008.58 1008.82 1009.24 1009.85 1009.76 1009.72 1009.63 1009.80 1010.11 1010.41 1010.65 1010.68 1010.68 1010.61
1011.42 1010.87 1010.85 1010.65 1010.93 1010.80 1010.92 1011.70 1013.11 1013.56 1013.40 1013.34 1013.37 1013.26 1013.19 1013.13 1013.12 1013.25 1013.25 1013.09 1012.70 1012.24 1011.87 1011.44 1011.08 1010.50 1010.09 1009.55 1008.98 1008.59 1008.29 1008.31 1008.13 1007.91 1007.84 1007.92 1008.08 1008.49 1009.31 1009.23 1009.13 1009.42 1009.54 1009.37 1009.79 1010.03 1010.23 1009.98 1009.99
1011.32 1011.16 1011.03 1010.94 1011.04 1010.98 1011.24 1011.85 1012.88 1013.54 1013.55 1013.54 1013.56 1013.46 1013.32 1013.28 1013.16 1013.21 1013.14 1012.96 1012.70 1012.45 1012.17 1011.66 1011.14 1010.66 1010.25 1009.64 1008.94 1008.32 1008.04 1007.72 1007.82 1007.65 1007.58 1007.59 1007.78 1008.07 1008.50 1008.56 1008.62 1008.90 1009.17 1009.36 1009.12 1009.49 1009.62 1009.61 1009.46
1011.80 1011.62 1011.31 1011.02 1011.16 1011.28 1011.30 1011.78 1012.56 1013.31 1013.48 1013.48 1013.40 1013.42 1013.46 1013.40 1013.36 1013.13 1012.96 1012.78 1012.49 1012.17 1011.90 1011.55 1011.01 1010.61 1010.18 1009.48 1008.93 1008.14 1007.51 1007.07 1007.06 1007.18 1007.21 1007.22 1007.33 1007.49 1007.90 1007.87 1007.91 1008.30 1008.39 1008.63 1009.01 1009.03 1009.13 1009.00 1009.31
1012.08 1011.76 1011.53 1011.41 1011.43 1011.62 1011.35 1011.70 1012.57 1013.14 1013.42 1013.62 1013.60 1013.50 1013.44 1013.16 1013.00 1012.90 1012.70 1012.43 1012.20 1011.88 1011.60 1011.26 1010.90 1010.48 1010.02 1009.55 1009.24 1008.87 1008.10 1007.40 1006.92 1006.53 1006.44 1006.56 1006.62 1006.76 1006.96 1007.20 1007.21 1007.38 1007.70 1008.03 1008.42 1008.72 1008.34 1008.40 1008.56
1012.20 1011.90 1011.86 1011.83 1011.80 1011.88 1011.97 1011.88 1012.50 1013.13 1013.47 1013.65 1013.72 1013.82 1013.62 1013.35 1012.80 1012.40 1012.12 1012.02 1011.85 1011.62 1011.34 1010.99 1010.67 1010.30 1009.85 1009.52 1008.97 1008.62 1008.08 1007.38 1006.74 1006.25 1006.09 1005.94 1005.97 1006.07 1006.24 1006.38 1006.58 1006.58 1006.95 1006.96 1007.50 1008.09 1008.12 1007.76 1008.17
1012.30 1012.53 1012.42 1012.26 1012.15 1011.80 1012.45 1011.78 1012.08 1012.62 1013.04 1013.41 1013.51 1013.46 1013.34 1013.12 1012.93 1012.60 1012.12 1011.69 1011.50 1011.30 1011.07 1010.67 1010.32 1010.00 1009.51 1009.17 1008.64 1008.20 1007.66 1006.96 1006.46 1005.92 1005.29 1005.11 1005.24 1005.30 1005.33 1005.57 1005.82 1006.04 1005.82 1006.18 1006.73 1007.26 1007.68 1007.76 1007.76
1012.72 1012.85 1012.78 1012.75 1012.57 1012.73 1012.70 1012.51 1011.81 1012.67 1012.71 1012.96 1013.09 1012.95 1012.75 1012.65 1012.55 1012.19 1011.84 1011.52 1011.20 1010.93 1010.60 1010.24 1009.86 1009.54 1009.21 1008.83 1008.44 1007.84 1007.23 1006.66 1006.06 1005.61 1005.10 1004.75 1004.43 1004.47 1004.49 1004.48 1004.77 1005.10 1005.32 1005.31 1005.81 1006.51 1006.89 1006.98 1007.06
1013.20 1013.12 1013.16 1013.41 1013.16 1012.97 1013.20 1012.97 1011.76 1012.30 1012.66 1012.89 1012.86 1012.66 1012.47 1012.20 1011.98 1011.80 1011.69 1011.21 1010.73 1010.46 1010.08 1009.72 1009.40 1009.01 1008.74 1008.36 1007.77 1007.38 1007.09 1006.54 1005.90 1005.30 1004.76 1004.08 1003.57 1003.15 1003.50 1003.72 1003.95 1004.21 1004.53 1004.64 1005.03 1005.57 1006.10 1006.11 1006.54
1013.28 1013.32 1013.40 1013.41 1013.29 1013.24 1013.78 1013.25 1012.35 1012.64 1012.87 1013.02 1012.84 1012.44 1012.17 1011.98 1011.46 1011.22 1010.81 1010.51 1010.24 1009.86 1009.61 1009.31 1008.95 1008.51 1008.27 1007.86 1007.21 1006.57 1006.15 1005.93 1005.42 1004.79 1004.13 1003.50 1002.85 1002.63 1002.27 1002.63 1002.87 1003.12 1003.45 1003.82 1004.39 1004.75 1005.33 1005.54 1005.88
1014.12 1014.40 1014.84 1014.90 1014.62 1014.10 1013.98 1013.11 1012.45 1012.82 1013.00 1012.92 1012.77 1012.24 1011.72 1011.36 1011.20 1011.00 1010.64 1010.41 1009.90 1009.50 1009.18 1008.87 1008.59 1008.14 1007.87 1007.45 1006.80 1006.19 1005.49 1005.12 1004.62 1003.86 1003.41 1002.90 1002.36 1001.86 1001.84 1001.84 1001.92 1002.33 1002.63 1003.11 1003.66 1004.24 1004.38 1005.19 1005.61
1014.40 1014.92 1015.87 1016.02 1016.41 1015.61 1013.92 1013.27 1012.68 1012.88 1012.84 1012.47 1012.07 1011.79 1011.53 1011.27 1011.02 1010.68 1010.37 1010.06 1009.70 1009.26 1008.90 1008.55 1008.32 1007.90 1007.52 1006.92 1006.28 1005.67 1004.87 1004.27 1003.82 1003.45 1002.83 1002.16 1001.84 1001.56 1001.42 1001.15 1001.14 1001.31 1001.83 1002.26 1002.86 1003.38 1004.12 1004.67 1005.65
1014.52 1015.53 1015.93 1016.27 1016.49 1015.63 1013.99 1013.43 1012.72 1012.58 1012.53 1012.30 1011.89 1011.53 1011.19 1010.95 1010.68 1010.47 1010.09 1009.85 1009.58 1009.26 1008.85 1008.27 1007.93 1007.44 1007.08 1006.58 1005.75 1005.02 1004.26 1003.68 1002.96 1002.63 1002.03 1001.41 1001.02 1000.70 1000.48 1000.55 1000.56 1000.54 1000.81 1001.47 1002.24 1002.92 1003.67 1004.42 1005.48
1014.96 1015.21 1016.04 1016.68 1016.96 1016.57 1015.32 1013.18 1012.84 1012.63 1012.57 1012.36 1011.88 1011.32 1010.90 1010.55 1010.26 1010.13 1009.79 1009.62 1009.44 1009.06 1008.67 1008.22 1007.74 1007.20 1006.60 1005.85 1005.06 1004.40 1003.86 1003.24 1002.64 1001.89 1001.24 1000.55 1000.23 999.92 999.48 999.57 999.72 1000.12 1000.33 1000.86 1001.84 1002.78 1003.44 1004.21 1005.22
1015.04 1015.27 1015.81 1016.30 1016.95 1016.94 1016.30 1013.80 1012.93 1012.63 1012.52 1012.28 1011.72 1011.21 1010.85 1010.49 1010.18 1009.85 1009.57 1009.36 1009.10 1008.87 1008.66 1008.29 1007.65 1007.09 1006.44 1005.49 1004.60 1003.70 1003.02 1002.44 1001.58 1000.77 1000.20 999.81 999.19 999.03 998.69 998.78 998.73 999.27 1000.10 1000.88 1001.56 1002.53 1003.42 1004.17 1004.88
Wind_Speed
4 3 1 1 4 1 1 3 3 10 4 0 10 2 3 6 3 4 4 5 6 14 14 14 13 12 11 13 14 15 16 17 18 17 18 18 17 16 15 14 13 12 12 11 10 9 9 8 8
3 2 2 2 2 3 3 4 11 10 10 14 2 3 3 5 4 2 1 4 8 13 13 14 14 13 12 11 12 13 13 15 16 17 16 17 16 16 15 14 13 13 12 11 10 9 8 8 8
1 3 1 3 2 2 3 6 12 10 8 4 1 5 4 5 6 5 5 7 9 11 12 13 14 13 13 13 11 11 11 12 13 15 15 15 15 15 14 13 13 13 13 11 10 8 6 6 6
0 2 4 0 7 3 1 8 9 8 3 4 1 6 3 3 6 6 5 7 9 11 11 13 14 15 14 14 13 11 11 11 11 12 12 12 13 13 12 12 11 11 12 11 10 8 7 5 5
3 1 3 3 2 1 4 6 8 10 3 5 1 6 5 4 6 4 4 6 10 10 9 11 10 12 14 15 15 14 13 12 12 12 12 12 11 11 11 11 10 10 9 9 9 8 7 6 6
3 0 3 4 3 2 4 5 6 7 6 6 7 4 3 7 6 6 4 5 7 8 8 8 8 8 10 12 14 13 13 14 13 13 13 12 11 11 10 10 10 9 8 7 7 7 7 6 5
3 2 4 4 4 3 4 6 5 5 8 10 4 3 3 9 9 3 4 4 5 6 7 7 8 8 8 8 10 12 12 12 12 13 14 13 12 10 9 9 8 7 7 6 5 6 6 6 5
3 3 5 2 6 5 4 4 3 6 5 6 2 3 3 4 8 3 4 4 3 4 6 7 7 8 7 8 8 9 10 11 11 11 11 12 11 11 11 10 9 8 8 8 6 6 5 5 5
1 2 4 5 4 3 2 4 2 3 5 5 3 1 3 3 4 1 2 1 2 5 7 8 9 9 9 9 8 9 11 11 11 11 11 9 10 12 12 11 8 10 9 8 7 6 5 5 6
1 1 3 1 1 1 3 2 5 4 7 1 4 2 3 4 4 6 5 4 4 5 7 7 9 9 9 7 9 10 9 9 10 11 11 11 11 10 10 9 12 11 10 9 7 6 6 7 5
2 3 5 5 5 2 2 4 3 4 3 8 11 8 10 6 5 4 5 6 9 9 8 7 8 10 11 9 6 5 6 6 7 11 10 10 8 8 8 7 7 9 11 8 9 8 7 6 5
2 1 3 2 3 2 3 2 2 6 8 11 7 6 9 12 11 11 9 8 9 9 9 7 7 8 10 7 7 8 8 8 8 9 11 9 7 8 9 7 9 8 7 9 8 6 7 7 7
1 1 4 3 7 7 3 2 5 10 8 11 14 16 16 14 13 11 10 10 11 11 11 10 8 9 9 10 8 8 9 8 9 10 12 11 10 9 9 9 9 9 8 8 8 7 7 7 7
1 4 7 1 3 1 1 5 1 8 6 14 15 15 14 16 14 13 15 13 14 12 13 13 9 8 9 10 11 9 9 10 9 9 11 14 11 9 9 10 10 9 9 8 8 8 7 7 7
2 3 1 2 4 2 1 6 9 4 6 13 12 11 12 13 14 14 12 12 13 11 12 12 12 10 7 11 11 9 9 10 10 10 12 14 13 11 12 8 10 10 9 10 8 8 7 7 7
1 1 3 5 4 3 4 4 5 5 6 11 11 10 10 12 11 12 11 12 12 12 13 12 11 10 10 8 9 8 8 10 10 10 10 14 14 13 11 11 9 8 9 8 8 8 8 8 7
3 4 1 0 1 3 5 2 4 3 6 9 9 10 10 11 12 12 11 10 11 12 13 13 12 11 11 9 8 9 11 7 10 10 10 13 14 13 10 11 11 8 6 9 9 8 9 8 8
1 1 2 2 1 2 1 3 5 3 5 7 8 10 11 12 14 13 13 11 11 10 11 12 11 11 11 8 7 6 7 10 8 9 11 14 11 14 11 12 12 10 9 6 9 10 9 9 8
3 2 5 5 1 4 2 5 8 5 3 8 10 11 12 13 11 13 13 12 12 12 12 12 13 13 10 7 7 4 6 7 9 10 14 14 12 15 13 11 12 12 11 11 7 10 11 9 7
5 4 3 6 4 4 4 7 7 5 4 6 8 11 13 15 15 14 14 14 13 14 13 13 12 13 10 8 6 6 7 7 9 9 12 15 15 16 14 14 12 13 11 12 11 10 10 9 8
2 2 2 5 4 3 4 3 8 7 4 2 5 7 10 13 17 18 18 16 15 14 14 13 13 13 12 11 8 7 8 9 9 10 11 12 16 17 16 16 14 13 12 12 12 11 14 10 8
2 3 5 6 6 10 3 4 5 11 7 2 6 9 10 12 13 15 17 18 17 15 14 14 13 13 11 12 9 10 9 10 10 10 10 11 15 16 17 18 16 15 12 13 12 8 9 10 9
3 7 4 4 5 4 2 3 3 3 6 2 9 12 14 13 13 15 17 18 17 16 14 13 14 13 14 13 11 9 10 10 9 10 13 12 12 16 17 17 17 16 13 13 13 12 11 11 12
8 3 1 1 2 3 3 5 2 1 2 3 9 13 14 15 14 14 15 17 17 16 15 14 14 14 14 14 13 12 13 14 11 11 12 12 12 11 16 17 15 16 15 14 13 13 16 13 10
8 5 3 2 1 2 1 6 3 2 1 5 10 14 14 14 15 16 19 19 18 18 17 15 15 17 15 15 16 16 14 14 16 14 12 14 12 12 13 16 16 14 16 15 14 14 12 12 11
4 4 1 3 4 6 4 4 3 0 2 6 10 12 16 17 17 16 18 18 20 19 18 16 17 18 17 16 17 16 17 10 12 13 12 12 12 13 13 14 15 17 17 15 14 12 11 10 9
3 3 2 3 1 4 2 2 5 2 3 11 16 16 17 17 16 17 18 18 19 18 18 17 16 17 18 19 16 15 15 16 13 17 14 12 14 13 15 15 16 17 17 16 15 11 11 12 7
3 7 1 3 3 5 3 7 5 4 8 14 17 18 16 17 16 16 17 19 18 17 16 17 17 17 18 20 17 13 17 16 16 14 17 16 15 16 16 17 16 16 16 15 13 10 11 13 8
3 2 4 1 1 2 5 4 2 3 10 13 16 17 19 19 17 17 18 18 18 17 18 19 20 20 21 20 19 17 15 16 15 15 16 16 17 16 17 18 17 17 15 14 12 11 12 13 12
1 1 1 1 1 3 2 8 1 5 9 11 16 17 19 17 17 17 19 19 19 19 18 19 18 16 19 20 20 19 17 17 16 14 16 17 17 17 17 18 17 16 14 10 13 13 12 14 15
Wind_Direction
331 14 109 130 214 258 59 73 279 305 296 216 314 269 79 55 23 26 61 108 143 148 152 148 142 144 140 137 137 135 137 142 145 148 149 151 152 153 155 155 155 155 160 160 153 152 149 158 162
345 158 121 104 217 187 100 317 311 308 304 304 259 227 75 67 35 52 115 115 154 148 151 148 145 146 147 141 135 136 141 144 147 148 151 153 155 156 159 160 160 163 166 167 159 155 160 167 165
142 6 274 84 107 113 95 328 309 317 324 237 155 48 35 9 356 24 42 128 142 148 150 140 142 146 151 149 145 140 144 148 151 150 154 157 159 160 163 164 167 170 172 169 163 157 164 171 166
124 127 101 223 105 117 25 346 333 335 78 46 58 72 99 11 329 359 102 129 136 149 152 139 145 150 154 158 158 157 155 155 156 155 157 160 164 163 165 167 173 176 177 172 167 159 168 180 177
52 100 94 95 108 219 252 300 334 18 48 33 107 85 70 24 352 28 69 121 138 141 152 152 149 154 159 165 169 169 168 167 165 165 165 167 168 170 173 174 182 183 183 178 170 166 172 186 191
90 339 130 132 140 299 289 320 326 24 34 37 74 75 41 344 17 353 49 88 134 144 153 159 156 163 169 173 175 176 177 175 175 171 171 175 176 180 182 184 188 188 192 189 182 175 177 190 206
89 78 105 130 129 106 19 334 15 4 30 31 338 78 19 16 13 29 53 81 131 155 166 176 185 185 184 184 184 183 183 184 184 179 178 178 180 183 187 189 198 199 197 205 199 192 192 201 213
90 89 134 167 148 99 6 341 334 355 34 323 315 103 81 5 2 77 86 85 103 170 193 191 199 201 210 204 196 196 191 193 192 191 189 187 186 186 191 191 202 209 208 216 214 206 207 221 236
141 106 146 142 149 78 336 0 30 324 314 336 15 103 48 19 7 63 49 147 193 203 207 208 206 206 208 209 209 207 213 204 200 201 203 192 209 204 201 207 192 214 220 222 218 218 218 234 242
69 114 123 188 155 84 320 315 323 319 334 331 319 327 26 341 337 338 321 279 248 236 224 223 224 221 218 215 214 212 219 219 213 210 208 213 216 219 223 215 208 219 224 228 223 225 221 222 242
106 105 169 191 223 222 282 266 211 267 333 8 321 328 355 12 1 332 317 302 301 312 302 271 238 220 215 219 218 220 216 218 222 225 219 218 217 220 216 225 218 220 215 233 214 217 229 230 237
165 126 183 197 191 255 238 297 4 33 335 323 315 346 28 40 38 29 17 360 335 319 305 302 280 263 245 237 217 220 208 212 219 220 214 225 221 226 224 222 221 223 224 225 223 223 233 232 230
121 210 258 290 284 252 288 265 115 33 42 60 66 65 59 51 40 30 24 23 15 9 345 318 306 261 253 241 237 234 232 223 223 216 215 217 223 224 227 227 225 224 223 228 228 228 228 232 231
347 265 276 308 307 203 276 94 208 34 28 62 58 52 50 48 36 29 25 13 8 2 359 352 332 292 255 247 247 244 241 233 231 228 223 215 225 217 231 228 226 227 225 227 233 229 235 239 240
336 296 335 79 356 55 167 72 26 45 60 64 63 53 46 38 32 28 14 8 1 357 351 355 352 355 288 261 254 247 244 242 241 237 233 225 219 218 226 228 232 224 226 233 230 235 236 242 241
32 106 161 45 4 43 314 114 47 32 66 61 52 47 40 34 26 16 10 0 357 353 353 347 348 348 353 310 270 252 248 246 243 243 237 228 228 223 228 234 226 225 220 225 231 232 235 243 243
51 101 42 96 39 352 4 113 132 61 68 64 49 39 30 28 26 15 5 360 351 347 343 343 344 344 341 334 304 264 251 238 247 248 243 235 228 221 219 238 236 218 219 223 228 231 236 239 241
115 301 226 267 40 295 179 171 160 110 76 69 49 33 27 16 7 357 354 352 351 343 337 335 336 335 333 322 316 280 259 253 240 241 243 244 235 229 212 232 239 227 226 223 224 228 224 239 243
204 235 262 290 212 272 254 217 182 145 88 55 38 26 18 8 350 351 348 345 345 346 340 339 337 337 332 326 321 307 280 263 253 241 244 240 232 235 228 232 225 228 230 228 209 224 226 228 233
201 232 237 283 276 282 313 281 184 175 90 43 24 15 3 355 355 353 348 345 343 339 339 334 331 330 326 315 308 290 293 287 286 274 246 240 236 230 226 228 227 221 230 231 223 216 228 230 210
188 258 283 291 313 234 297 221 193 186 180 65 26 2 356 352 347 346 347 344 338 335 336 330 327 324 318 314 305 292 280 264 262 254 253 252 244 237 232 229 232 219 219 231 224 221 223 231 216
270 0 275 280 304 317 347 303 219 206 216 244 0 0 358 353 349 344 344 339 335 328 326 326 324 324 318 315 305 301 292 285 277 280 275 258 246 241 233 231 228 229 214 228 223 216 227 229 238
351 323 318 324 286 286 154 255 101 166 224 328 358 357 356 353 345 343 341 336 327 326 325 324 323 320 320 310 299 295 290 284 281 273 268 265 256 240 237 229 228 228 226 221 223 213 197 222 229
311 259 291 117 208 236 83 328 54 149 103 346 350 345 343 342 337 337 335 333 331 328 326 322 323 319 320 310 292 287 284 286 284 279 272 258 257 241 233 232 227 225 229 220 216 211 213 211 223
5 354 327 249 247 356 106 291 342 285 180 356 330 329 335 335 333 334 335 336 334 329 329 323 324 320 320 312 301 296 287 281 278 273 266 261 250 249 234 223 220 218 219 218 215 206 212 220 215
18 359 92 296 318 321 298 229 105 342 193 329 323 330 329 336 337 328 330 331 331 326 328 323 322 319 319 314 300 300 289 280 275 271 265 260 256 248 246 232 222 222 219 218 214 215 204 206 214
114 73 50 115 97 263 302 246 254 191 253 333 341 331 330 331 331 325 326 330 329 324 322 321 319 310 312 312 302 293 292 286 276 277 271 260 251 252 249 238 228 220 219 216 212 210 195 187 172
40 137 158 49 335 296 282 299 265 353 344 340 335 331 328 330 330 326 326 331 328 325 320 317 316 311 313 307 301 295 293 291 284 276 267 259 254 246 240 239 233 222 214 211 205 203 185 169 153
168 134 80 141 202 300 307 297 202 251 346 330 326 333 332 327 332 328 328 331 330 325 327 323 319 316 314 310 306 301 292 288 286 279 266 259 256 243 236 231 227 224 209 197 189 179 170 159 136
242 152 92 200 154 225 290 275 233 244 323 327 330 329 328 323 327 328 331 334 331 329 325 320 313 316 312 306 305 301 296 289 279 273 267 261 256 243 236 230 219 210 203 167 175 164 160 155 148